Location: Stockholm
(59.3330°N, 18.0500°E)
Time: 14:13:07
(UTC+01:00)

Envisat - Pass Details

Date: 02 December 2022
Orbit: 763 x 765 km, 98.2° (Epoch: 29 January)

Event Time Altitude Azimuth Distance (km) Brightness Sun altitude
Rises 05:52:33 0° 15° (NNE) 3,250 6.3 -16.8°
Reaches altitude 10° 05:55:06 10° 5° (N) 2,320 5.4 -16.5°
Maximum altitude 05:59:29 30° 306° (NW) 1,351 3.7 -16.0°
Enters shadow 06:01:15 24° 272° (W) 1,543 4.0 -15.8°
